Location: Brusselsch Zeekanaal
(50.8667°N, 4.3667°E)
Time: 11:07:24
(UTC+00:00)

Cosmos 1025 Rocket - Pass Details

Date: 08 November 2025
Orbit: 586 x 610 km, 82.5° (Epoch: 09 December)

Event Time Altitude Azimuth Distance (km) Brightness Sun altitude
Rises 06:00:16 0° 171° (S) 2,855 6.9 -7.6°
Reaches altitude 10° 06:02:33 10° 164° (SSE) 1,959 6.1 -7.3°
Maximum altitude 06:06:39 44° 93° (E) 857 4.5 -6.7°
Drops below altitude 10° 06:10:49 10° 22° (NNE) 1,979 5.7 -6.1°
Sets 06:13:07 0° 16° (NNE) 2,889 6.5 -5.7°
